Hourly Weather Roundup
Issued by NWS Central Illinois

Home | Current Version | Previous Version | Graphics & Text | Print | Product List | Glossary On
Versions: 1 2 3 4 5 6 7 8 9 10 11 12 13 14 15 16 17 18 19 20 21 22 23 24 25 26 27 28 29 30 31 32 33 34 35 36 37 38 39 40 41 42 43 44 45 46 47 48 49 50
000
NZUS43 KILX 222310
HWRILX

AREA WEATHER ROUNDUP
NATIONAL WEATHER SERVICE, LINCOLN IL
600 PM CDT WED OCT 22 2014


CITY           SKY/WX    TMP DP  RH WIND       PRES   REMARKS
BLOOMINGTON    CLEAR     55  36  49 SE6       30.25F
CHAMPAIGN      CLEAR     54  37  52 E5        30.25F
DECATUR        CLEAR     56  37  49 E6        30.25S
FLORA          CLEAR     58  38  46 CALM      30.24S
GALESBURG      CLEAR     56  38  51 SE5       30.21S
JACKSONVILLE   CLEAR     58  41  52 E7        30.21F
LACON          CLEAR     55  35  46 SE3       30.23F
LAWRENCEVILLE  CLEAR     57  41  55 NE6       30.24F
LITCHFIELD     CLEAR     56  38  49 SE5       30.22F
$$


CITY           SKY/WX    TMP DP  RH WIND       PRES   REMARKS
LINCOLN        CLEAR     57  37  46 SE3       30.22F
MACOMB         CLEAR     57  39  52 SE7       30.22F
MATTOON        CLEAR     55  38  52 NE3       30.24S
MT CARMEL AP   CLEAR     59  41  51 CALM      30.24S
OLNEY-NOBLE AP CLEAR     57  39  51 CALM      30.24F
PARIS          CLEAR     54  40  59 CALM      30.26S
PEORIA         CLEAR     58  36  43 SE5       30.23F
PONTIAC        CLEAR     53  34  49 E6        30.25F
RANTOUL        CLEAR     58  35  42 CALM      30.25F
ROBINSON       CLEAR     58  43  57 N3        30.25F
SPRINGFIELD    CLEAR     57  39  51 SE6       30.23F
TAYLORVILLE    CLEAR     55  37  50 E5        30.23F
$$

...REGIONAL REPORTS...


CITY           SKY/WX    TMP DP  RH WIND       PRES   REMARKS
CHICAGO O`HARE PTCLDY    48  36  63 E8        30.28S
KANKAKEE       CLEAR     53  36  52 CALM      30.27F
MOLINE         CLEAR     55  37  50 SE8       30.20F
MOUNT VERNON   CLEAR     55  39  54 CALM      30.25R
PITTSFIELD     CLEAR     58  42  53 E6        30.21S
QUINCY         CLEAR     58  40  51 SE8       30.19F
ROCKFORD       CLEAR     53  35  50 S7        30.25F
$$


CITY           SKY/WX    TMP DP  RH WIND       PRES   REMARKS
BURLINGTON     CLEAR     58  41  53 SE6       30.19S
CEDAR RAPIDS   CLEAR     56  40  55 SE8       30.17F
DES MOINES     MOCLDY    64  47  53 S12       30.11R
KIRKSVILLE     CLEAR     57  45  64 SE7       30.17S
OTTUMWA        NOT AVBL
ST LOUIS       NOT AVBL
$$


CITY           SKY/WX    TMP DP  RH WIND       PRES   REMARKS
TERRE HAUTE    CLEAR     55  40  56 E3        30.25S
EVANSVILLE     CLEAR     58  40  51 CALM      30.24S
INDIANAPOLIS   CLEAR     52  39  61 N5        30.25S
LAFAYETTE      CLEAR     53  36  52 NE5       30.26F
MADISON        PTCLDY    55  35  47 S7        30.23F
MILWAUKEE      PTCLDY    46  38  73 SE9       30.29S
$$





USA.gov is the U.S. government's official web portal to all federal, state and local government web resources and services.